Showing default

TRITON 1, 39427

Orbit data source: Space-Track

TRITON 1, 39427 is a payload satellite owned by ISIS BV (UK) in SSO that was launched on Thu, 21 Nov 2013 UTC via a DNEPR launch vehicle from the Orenburg, Russia (OREN). Payload-class satellites include a variety of spacecraft equipped with specific instruments for various scientific and technological missions. These include communications satellites like Starlink; space stations such as the ISS; scientific satellites like the Hubble; Earth observation satellites from companies like Planet Labs, Umbra, and HawkEye 360; GPS; miniature CubeSats for education and research; and military/defense satellites.

Loading next visibility...
Identifier
39427, 2013-066M
Orbit
SSO
Country
Flag of UKUK
Related business
Manufacturer
ISIS BV
Mission
Operational Amateur Communications
Bus & Motor
CUBESAT 3U, Unknown motor
Mass
2.5 kg wet, 2.5 kg dry
Launch date (UTC)
2013-11-21 (12 years ago)
Launch vehicle
DNEPR
Launch site
Orenburg, Russia (OREN)
Object type
Payload
Rocket body
Debris
Shape & HBR
Box, 0.1 m
Radar Cross Section
0.075 m², Medium (>0.1 m² and < 1m²)

Expand to show TLE details & history
Last TLE update: 4 hours ago

TLE from 4 hours ago
0 TRITON 1
1 39427U 13066M   26037.86424559  .00004716  00000-0  57481-3 0  9998
2 39427  97.8310 310.6665 0089885 299.6676  59.5609 14.80995494654793
Epoch: 2026-02-06T20:44Z
TLE epoch observation values (Epoch: 2026-02-06T20:44:30.818Z)
Latitude
-0.00006°
Longitude
-137.4579°
Altitude
597.73 km
Speed
7.578 km/s
True Right ascension
20h 42m 39s
True Declination
0° 00' 00"
Sunlit
Object was in daylight at epoch
Visualization orbit readout
Latitude
Unknown
Longitude
Unknown
Altitude
Unknown
Speed
Unknown
Apparent Right ascension
Unknown
Apparent Declination
Unknown
Sunlit
N/A
Visualization observer readout
Local Sidereal Time
02:43:55
Azimuth
Unknown
Elevation
Unknown
Doppler factor
Unknown
Orbital elements
Apogee altitude
686.151 km
Perigee altitude
560.288 km
Semi-major axis
7,001.357 km
Eccentricity
0.00899
Inclination
97.831°
RAAN
310.6665°
Arg. of periapsis
299.6676°
True anomaly
60.45399°
Mean anomaly
59.5609°
Eccentric anomaly
60.00694°
Mean motion
3.70484 °/min
Orbital period
97.17 mins
BSTAR
0.00057481
Loading maneuver chart data...
Computing Atmospheric mass density...
Loading historical data...
Loading historical data...
Loading historical data...
Loading historical data...
Loading historical data...
Loading historical data...
Loading historical data...

Documentation

Showing up to 5 results
|